Location: Mound City (historical)
(34.0564°N, 117.2656°W)
Time: 03:18:50
(UTC+00:00)

Cosmos 1726 Rocket - Pass Details

Date: 08 September 2024
Orbit: 599 x 624 km, 82.5° (Epoch: 03 October)

Event Time Altitude Azimuth Distance (km) Brightness Sun altitude
Rises 12:05:53 0° 172° (S) 2,831 6.8 -17.4°
Reaches altitude 10° 12:08:07 10° 166° (SSE) 1,935 6.0 -16.9°
Maximum altitude 12:12:13 47° 93° (E) 799 4.5 -16.1°
Drops below altitude 10° 12:16:23 10° 19° (NNE) 1,958 6.6 -15.3°
Sets 12:18:40 0° 14° (NNE) 2,870 7.4 -14.8°
